GFSFLT2_prec_precacc24_150.txt.gz
Total_Precipitation_Accumulation
0.00 0.00 0.00 0.00 0.00 0.00 0.00 0.00 0.00 0.00 0.00 0.00 0.00 0.00 0.00 0.00 0.00 0.00 0.00 0.00 0.00 0.00 0.00 0.00 0.01 0.01 0.02
0.00 0.00 0.00 0.00 0.00 0.00 0.00 0.00 0.00 0.00 0.00 0.00 0.00 0.00 0.00 0.00 0.00 0.00 0.00 0.00 0.00 0.00 0.00 0.00 0.01 0.01 0.01
0.00 0.00 0.00 0.00 0.00 0.00 0.00 0.00 0.00 0.00 0.00 0.00 0.00 0.00 0.00 0.00 0.00 0.00 0.00 0.00 0.00 0.00 0.00 0.01 0.01 0.01 0.01
0.00 0.00 0.00 0.00 0.00 0.00 0.00 0.00 0.00 0.00 0.00 0.00 0.00 0.00 0.00 0.00 0.00 0.00 0.00 0.00 0.00 0.00 0.01 0.02 0.01 0.01 0.01
0.00 0.00 0.00 0.00 0.00 0.00 0.00 0.00 0.00 0.00 0.00 0.00 0.00 0.00 0.00 0.00 0.00 0.00 0.00 0.00 0.00 0.00 0.00 0.01 0.02 0.01 0.01
0.00 0.00 0.00 0.00 0.00 0.00 0.00 0.00 0.00 0.00 0.00 0.00 0.00 0.00 0.00 0.00 0.00 0.00 0.00 0.00 0.00 0.00 0.00 0.00 0.01 0.02 0.01
0.00 0.00 0.00 0.00 0.00 0.00 0.00 0.01 0.00 0.00 0.00 0.00 0.00 0.00 0.00 0.00 0.00 0.00 0.00 0.00 0.00 0.00 0.00 0.00 0.00 0.02 0.04
0.01 0.00 0.00 0.00 0.00 0.01 0.02 0.03 0.01 0.00 0.00 0.01 0.00 0.00 0.00 0.00 0.00 0.00 0.00 0.00 0.00 0.00 0.00 0.00 0.00 0.00 0.03
0.01 0.00 0.00 0.01 0.01 0.04 0.06 0.04 0.02 0.00 0.00 0.01 0.00 0.00 0.00 0.00 0.00 0.00 0.00 0.00 0.00 0.00 0.00 0.00 0.00 0.00 0.00
0.01 0.00 0.00 0.00 0.01 0.02 0.02 0.04 0.02 0.02 0.00 0.01 0.00 0.01 0.02 0.00 0.00 0.00 0.00 0.00 0.00 0.00 0.00 0.00 0.00 0.00 0.00
0.00 0.00 0.00 0.00 0.00 0.01 0.02 0.03 0.03 0.02 0.00 0.02 0.02 0.01 0.04 0.01 0.00 0.00 0.00 0.00 0.00 0.00 0.00 0.00 0.00 0.00 0.00
0.01 0.01 0.00 0.00 0.00 0.02 0.03 0.02 0.01 0.01 0.00 0.03 0.05 0.02 0.06 0.06 0.01 0.00 0.00 0.00 0.00 0.00 0.00 0.00 0.00 0.00 0.00
0.03 0.01 0.01 0.00 0.01 0.02 0.02 0.02 0.02 0.01 0.00 0.02 0.04 0.03 0.07 0.09 0.03 0.01 0.00 0.00 0.00 0.00 0.00 0.00 0.00 0.00 0.00
0.05 0.03 0.05 0.05 0.03 0.02 0.04 0.02 0.06 0.01 0.00 0.01 0.02 0.03 0.05 0.04 0.06 0.05 0.01 0.01 0.00 0.00 0.00 0.00 0.00 0.00 0.00
0.12 0.12 0.12 0.12 0.07 0.04 0.07 0.07 0.08 0.01 0.01 0.01 0.03 0.02 0.02 0.02 0.07 0.02 0.01 0.00 0.00 0.00 0.01 0.01 0.00 0.00 0.00
0.18 0.14 0.13 0.11 0.08 0.08 0.08 0.10 0.06 0.02 0.02 0.03 0.04 0.05 0.03 0.02 0.02 0.02 0.01 0.01 0.00 0.00 0.00 0.02 0.01 0.00 0.00
0.15 0.11 0.10 0.11 0.09 0.10 0.05 0.08 0.07 0.02 0.02 0.04 0.03 0.06 0.13 0.05 0.00 0.00 0.01 0.00 0.00 0.00 0.00 0.01 0.01 0.00 0.00

GFSFLT2_prec_precacc24_153.txt.gz
Total_Precipitation_Accumulation
0.00 0.00 0.00 0.00 0.00 0.00 0.00 0.00 0.00 0.00 0.00 0.00 0.00 0.00 0.00 0.00 0.00 0.00 0.00 0.00 0.00 0.00 0.00 0.00 0.00 0.01 0.01
0.00 0.00 0.00 0.00 0.00 0.00 0.00 0.00 0.00 0.00 0.00 0.00 0.00 0.00 0.00 0.00 0.00 0.00 0.00 0.00 0.00 0.00 0.00 0.00 0.00 0.01 0.01
0.00 0.00 0.00 0.00 0.00 0.00 0.00 0.00 0.00 0.00 0.00 0.00 0.00 0.00 0.00 0.00 0.00 0.00 0.00 0.00 0.00 0.00 0.00 0.00 0.00 0.00 0.00
0.00 0.00 0.00 0.00 0.00 0.00 0.00 0.00 0.00 0.00 0.00 0.00 0.00 0.00 0.00 0.00 0.00 0.00 0.00 0.00 0.00 0.00 0.00 0.00 0.00 0.00 0.00
0.00 0.00 0.00 0.00 0.00 0.00 0.00 0.00 0.00 0.00 0.00 0.00 0.00 0.00 0.00 0.00 0.00 0.00 0.00 0.00 0.00 0.00 0.00 0.00 0.00 0.00 0.00
0.00 0.00 0.00 0.00 0.00 0.00 0.00 0.00 0.00 0.00 0.00 0.00 0.00 0.00 0.00 0.00 0.00 0.00 0.00 0.00 0.00 0.00 0.00 0.00 0.00 0.00 0.00
0.00 0.00 0.00 0.00 0.00 0.00 0.00 0.00 0.00 0.00 0.00 0.00 0.00 0.00 0.00 0.00 0.00 0.00 0.00 0.00 0.00 0.00 0.00 0.00 0.00 0.00 0.00
0.01 0.00 0.00 0.00 0.00 0.00 0.01 0.02 0.01 0.00 0.00 0.01 0.00 0.00 0.00 0.00 0.00 0.00 0.00 0.00 0.00 0.00 0.00 0.00 0.00 0.00 0.00
0.01 0.00 0.00 0.01 0.01 0.04 0.05 0.04 0.03 0.00 0.00 0.01 0.00 0.00 0.00 0.00 0.00 0.00 0.00 0.00 0.00 0.00 0.00 0.00 0.00 0.00 0.00
0.01 0.00 0.00 0.00 0.01 0.03 0.03 0.06 0.03 0.04 0.00 0.01 0.00 0.01 0.01 0.00 0.00 0.00 0.00 0.00 0.00 0.00 0.00 0.00 0.00 0.00 0.00
0.00 0.00 0.00 0.01 0.02 0.03 0.04 0.04 0.05 0.04 0.00 0.01 0.02 0.01 0.03 0.01 0.00 0.00 0.00 0.00 0.00 0.00 0.00 0.00 0.00 0.00 0.00
0.02 0.01 0.01 0.02 0.02 0.05 0.08 0.07 0.02 0.01 0.01 0.04 0.04 0.01 0.04 0.04 0.01 0.00 0.00 0.00 0.00 0.00 0.00 0.00 0.00 0.00 0.00
0.05 0.02 0.02 0.03 0.08 0.14 0.16 0.17 0.13 0.04 0.01 0.03 0.05 0.02 0.05 0.07 0.03 0.00 0.00 0.00 0.00 0.00 0.00 0.00 0.00 0.00 0.00
0.07 0.05 0.07 0.11 0.18 0.18 0.21 0.17 0.19 0.08 0.02 0.02 0.04 0.06 0.08 0.04 0.05 0.04 0.01 0.01 0.00 0.00 0.00 0.00 0.00 0.00 0.00
0.16 0.18 0.18 0.18 0.17 0.17 0.23 0.21 0.16 0.06 0.04 0.02 0.04 0.06 0.05 0.04 0.07 0.02 0.00 0.00 0.00 0.00 0.00 0.01 0.00 0.00 0.00
0.21 0.19 0.20 0.19 0.16 0.18 0.20 0.20 0.12 0.04 0.05 0.06 0.05 0.12 0.09 0.04 0.02 0.02 0.01 0.00 0.00 0.00 0.00 0.02 0.01 0.00 0.00
0.18 0.15 0.15 0.16 0.16 0.18 0.12 0.14 0.11 0.05 0.05 0.08 0.06 0.07 0.13 0.05 0.00 0.00 0.00 0.00 0.00 0.00 0.00 0.00 0.01 0.00 0.00

GFSFLT2_prec_precacc24_156.txt.gz
Total_Precipitation_Accumulation
0.00 0.00 0.00 0.00 0.00 0.00 0.00 0.00 0.00 0.00 0.00 0.00 0.00 0.00 0.00 0.00 0.00 0.00 0.00 0.00 0.00 0.00 0.00 0.00 0.00 0.00 0.01
0.00 0.00 0.00 0.00 0.00 0.00 0.00 0.00 0.00 0.00 0.00 0.00 0.00 0.00 0.00 0.00 0.00 0.00 0.00 0.00 0.00 0.00 0.00 0.00 0.00 0.00 0.00
0.00 0.00 0.00 0.00 0.00 0.00 0.00 0.00 0.00 0.00 0.00 0.00 0.00 0.00 0.00 0.00 0.00 0.00 0.00 0.00 0.00 0.00 0.00 0.00 0.00 0.00 0.00
0.00 0.00 0.00 0.00 0.00 0.00 0.00 0.00 0.00 0.00 0.00 0.00 0.00 0.00 0.00 0.00 0.00 0.00 0.00 0.00 0.00 0.00 0.00 0.00 0.00 0.00 0.00
0.00 0.00 0.00 0.00 0.00 0.00 0.00 0.00 0.00 0.00 0.00 0.00 0.00 0.00 0.00 0.00 0.00 0.00 0.00 0.00 0.00 0.00 0.00 0.00 0.00 0.00 0.00
0.00 0.00 0.00 0.00 0.00 0.00 0.00 0.00 0.00 0.00 0.00 0.00 0.00 0.00 0.00 0.00 0.00 0.00 0.00 0.00 0.00 0.00 0.00 0.00 0.00 0.00 0.00
0.00 0.00 0.00 0.00 0.00 0.00 0.00 0.00 0.00 0.00 0.00 0.00 0.00 0.00 0.00 0.00 0.00 0.00 0.00 0.00 0.00 0.00 0.00 0.00 0.00 0.00 0.00
0.01 0.00 0.00 0.00 0.00 0.00 0.01 0.03 0.01 0.00 0.00 0.01 0.00 0.00 0.00 0.00 0.00 0.00 0.00 0.00 0.00 0.00 0.00 0.00 0.00 0.00 0.00
0.01 0.00 0.00 0.01 0.02 0.05 0.08 0.07 0.06 0.01 0.00 0.01 0.00 0.00 0.00 0.00 0.00 0.00 0.00 0.00 0.00 0.00 0.00 0.00 0.00 0.00 0.00
0.01 0.01 0.00 0.00 0.01 0.05 0.07 0.14 0.08 0.08 0.02 0.02 0.02 0.02 0.04 0.00 0.00 0.00 0.00 0.00 0.00 0.00 0.00 0.00 0.00 0.00 0.00
0.01 0.00 0.00 0.01 0.02 0.03 0.06 0.09 0.13 0.12 0.03 0.05 0.08 0.04 0.05 0.01 0.00 0.00 0.00 0.00 0.00 0.00 0.00 0.00 0.00 0.00 0.00
0.02 0.02 0.01 0.02 0.03 0.06 0.09 0.12 0.09 0.09 0.06 0.16 0.16 0.04 0.05 0.05 0.01 0.00 0.00 0.00 0.00 0.00 0.00 0.00 0.00 0.00 0.00
0.05 0.02 0.03 0.04 0.09 0.14 0.17 0.23 0.28 0.21 0.21 0.25 0.16 0.06 0.07 0.08 0.02 0.00 0.00 0.00 0.00 0.00 0.00 0.00 0.00 0.00 0.00
0.08 0.05 0.07 0.12 0.19 0.19 0.23 0.21 0.32 0.24 0.18 0.28 0.24 0.15 0.15 0.06 0.03 0.03 0.01 0.01 0.00 0.00 0.00 0.00 0.00 0.00 0.00
0.17 0.19 0.19 0.19 0.18 0.19 0.28 0.31 0.28 0.13 0.12 0.16 0.22 0.18 0.10 0.06 0.09 0.03 0.01 0.00 0.00 0.00 0.00 0.00 0.00 0.00 0.00
0.22 0.20 0.22 0.21 0.18 0.20 0.23 0.27 0.19 0.09 0.11 0.13 0.14 0.23 0.18 0.09 0.04 0.03 0.02 0.01 0.00 0.00 0.00 0.02 0.01 0.00 0.00
0.19 0.17 0.16 0.19 0.20 0.23 0.16 0.18 0.16 0.10 0.09 0.13 0.09 0.08 0.14 0.06 0.00 0.00 0.01 0.00 0.01 0.01 0.01 0.01 0.01 0.00 0.00

GFSFLT2_prec_precacc24_159.txt.gz
Total_Precipitation_Accumulation
0.00 0.00 0.00 0.00 0.00 0.00 0.00 0.00 0.00 0.00 0.00 0.00 0.00 0.00 0.00 0.00 0.00 0.00 0.00 0.00 0.00 0.00 0.00 0.00 0.00 0.00 0.00
0.00 0.00 0.00 0.00 0.00 0.00 0.00 0.00 0.00 0.00 0.00 0.00 0.00 0.00 0.00 0.00 0.00 0.00 0.00 0.00 0.00 0.00 0.00 0.00 0.00 0.00 0.00
0.00 0.00 0.00 0.00 0.00 0.00 0.00 0.00 0.00 0.00 0.00 0.00 0.00 0.00 0.00 0.00 0.00 0.00 0.00 0.00 0.00 0.00 0.00 0.00 0.00 0.00 0.00
0.00 0.00 0.00 0.00 0.00 0.00 0.00 0.00 0.00 0.00 0.00 0.00 0.00 0.00 0.00 0.00 0.00 0.00 0.00 0.00 0.00 0.00 0.00 0.00 0.00 0.00 0.00
0.00 0.00 0.00 0.00 0.00 0.00 0.00 0.00 0.00 0.00 0.00 0.00 0.00 0.00 0.00 0.00 0.00 0.00 0.00 0.00 0.00 0.00 0.00 0.00 0.00 0.00 0.00
0.00 0.00 0.00 0.00 0.00 0.00 0.00 0.00 0.00 0.00 0.00 0.00 0.00 0.00 0.00 0.00 0.00 0.00 0.00 0.00 0.00 0.00 0.00 0.00 0.00 0.00 0.00
0.00 0.00 0.00 0.00 0.00 0.00 0.00 0.00 0.00 0.00 0.00 0.00 0.00 0.00 0.00 0.00 0.00 0.00 0.00 0.00 0.00 0.00 0.00 0.00 0.00 0.00 0.00
0.01 0.00 0.00 0.00 0.00 0.01 0.02 0.03 0.01 0.00 0.01 0.02 0.00 0.00 0.00 0.00 0.00 0.00 0.00 0.00 0.00 0.00 0.00 0.01 0.01 0.01 0.00
0.01 0.01 0.00 0.01 0.02 0.06 0.08 0.08 0.07 0.01 0.00 0.02 0.01 0.00 0.00 0.00 0.00 0.00 0.01 0.00 0.00 0.00 0.00 0.00 0.01 0.01 0.00
0.01 0.01 0.01 0.00 0.01 0.05 0.07 0.15 0.10 0.11 0.02 0.03 0.02 0.02 0.09 0.02 0.00 0.00 0.01 0.01 0.00 0.00 0.00 0.01 0.01 0.00 0.00
0.01 0.00 0.00 0.01 0.02 0.03 0.07 0.10 0.16 0.16 0.03 0.07 0.16 0.10 0.13 0.05 0.01 0.00 0.02 0.03 0.02 0.00 0.00 0.00 0.00 0.00 0.00
0.02 0.02 0.01 0.02 0.03 0.06 0.09 0.12 0.09 0.10 0.07 0.19 0.31 0.14 0.13 0.16 0.07 0.01 0.03 0.03 0.02 0.01 0.00 0.00 0.00 0.00 0.00
0.05 0.02 0.03 0.04 0.09 0.14 0.17 0.23 0.28 0.21 0.22 0.29 0.28 0.19 0.17 0.15 0.07 0.04 0.03 0.03 0.02 0.01 0.00 0.00 0.00 0.00 0.00
0.08 0.05 0.07 0.12 0.19 0.19 0.23 0.22 0.34 0.26 0.21 0.36 0.34 0.28 0.32 0.17 0.07 0.07 0.03 0.03 0.01 0.00 0.00 0.00 0.00 0.00 0.00
0.17 0.19 0.19 0.20 0.18 0.20 0.29 0.32 0.31 0.15 0.15 0.18 0.30 0.31 0.23 0.19 0.18 0.08 0.02 0.01 0.00 0.00 0.01 0.00 0.00 0.00 0.00
0.22 0.21 0.24 0.23 0.19 0.20 0.24 0.29 0.21 0.11 0.14 0.18 0.21 0.31 0.28 0.20 0.10 0.06 0.04 0.02 0.00 0.02 0.03 0.02 0.01 0.00 0.00
0.21 0.19 0.18 0.21 0.21 0.24 0.17 0.21 0.18 0.11 0.10 0.15 0.15 0.15 0.16 0.08 0.02 0.02 0.02 0.01 0.03 0.05 0.03 0.01 0.01 0.00 0.00

GFSFLT2_prec_precacc24_162.txt.gz
Total_Precipitation_Accumulation
0.00 0.00 0.00 0.00 0.00 0.00 0.00 0.00 0.00 0.00 0.00 0.00 0.00 0.00 0.00 0.00 0.00 0.00 0.00 0.00 0.00 0.00 0.00 0.00 0.00 0.00 0.00
0.00 0.00 0.00 0.00 0.00 0.00 0.00 0.00 0.00 0.00 0.00 0.00 0.00 0.00 0.00 0.00 0.00 0.00 0.00 0.00 0.00 0.00 0.00 0.00 0.00 0.00 0.00
0.00 0.00 0.00 0.00 0.00 0.00 0.00 0.00 0.00 0.00 0.00 0.00 0.00 0.00 0.00 0.00 0.00 0.00 0.00 0.00 0.00 0.00 0.00 0.00 0.00 0.00 0.00
0.00 0.00 0.00 0.00 0.00 0.00 0.00 0.00 0.00 0.00 0.00 0.00 0.00 0.00 0.00 0.00 0.00 0.00 0.00 0.00 0.00 0.00 0.00 0.00 0.00 0.00 0.00
0.00 0.00 0.00 0.00 0.00 0.00 0.00 0.00 0.00 0.00 0.00 0.00 0.00 0.00 0.00 0.00 0.00 0.00 0.00 0.00 0.00 0.00 0.00 0.00 0.00 0.00 0.00
0.00 0.00 0.00 0.00 0.00 0.00 0.00 0.00 0.00 0.00 0.00 0.00 0.00 0.00 0.00 0.00 0.00 0.00 0.00 0.00 0.00 0.00 0.00 0.00 0.00 0.00 0.01
0.00 0.00 0.00 0.00 0.00 0.00 0.00 0.00 0.00 0.00 0.00 0.00 0.00 0.00 0.00 0.00 0.00 0.00 0.00 0.00 0.00 0.00 0.00 0.01 0.01 0.01 0.01
0.01 0.00 0.00 0.00 0.00 0.01 0.02 0.02 0.02 0.00 0.01 0.02 0.00 0.00 0.00 0.00 0.00 0.00 0.00 0.00 0.00 0.00 0.01 0.01 0.01 0.01 0.01
0.01 0.01 0.00 0.01 0.01 0.05 0.08 0.09 0.08 0.01 0.00 0.02 0.01 0.00 0.00 0.00 0.00 0.00 0.01 0.01 0.01 0.02 0.02 0.02 0.02 0.02 0.01
0.01 0.01 0.01 0.01 0.01 0.05 0.08 0.16 0.12 0.13 0.02 0.04 0.03 0.03 0.10 0.02 0.00 0.00 0.01 0.02 0.03 0.04 0.04 0.04 0.03 0.03 0.02
0.01 0.01 0.01 0.01 0.02 0.03 0.07 0.12 0.19 0.20 0.04 0.09 0.19 0.12 0.17 0.08 0.01 0.00 0.02 0.04 0.08 0.11 0.12 0.10 0.07 0.06 0.02
0.02 0.01 0.01 0.02 0.03 0.06 0.10 0.13 0.10 0.12 0.07 0.20 0.35 0.17 0.17 0.22 0.12 0.02 0.04 0.07 0.10 0.12 0.13 0.13 0.11 0.08 0.06
0.05 0.02 0.03 0.04 0.09 0.14 0.17 0.23 0.28 0.21 0.22 0.29 0.30 0.23 0.27 0.27 0.16 0.08 0.06 0.08 0.09 0.10 0.11 0.10 0.05 0.01 0.01
0.08 0.05 0.07 0.12 0.19 0.19 0.24 0.22 0.34 0.26 0.21 0.36 0.37 0.37 0.40 0.21 0.13 0.13 0.06 0.09 0.07 0.06 0.06 0.03 0.01 0.00 0.00
0.17 0.19 0.19 0.20 0.18 0.20 0.30 0.33 0.32 0.15 0.16 0.18 0.31 0.34 0.28 0.27 0.25 0.13 0.08 0.09 0.04 0.03 0.04 0.02 0.00 0.00 0.00
0.22 0.21 0.25 0.24 0.20 0.21 0.24 0.31 0.23 0.11 0.14 0.18 0.23 0.34 0.30 0.24 0.18 0.13 0.12 0.10 0.05 0.03 0.04 0.03 0.01 0.00 0.00
0.22 0.20 0.21 0.23 0.22 0.25 0.18 0.22 0.19 0.13 0.11 0.17 0.18 0.17 0.16 0.08 0.05 0.08 0.09 0.06 0.07 0.09 0.05 0.03 0.01 0.00 0.00

GFSFLT2_prec_precacc24_165.txt.gz
Total_Precipitation_Accumulation
0.00 0.00 0.00 0.00 0.00 0.00 0.00 0.00 0.00 0.00 0.00 0.00 0.00 0.00 0.00 0.00 0.00 0.00 0.00 0.00 0.00 0.00 0.00 0.00 0.00 0.00 0.00
0.00 0.00 0.00 0.00 0.00 0.00 0.00 0.00 0.00 0.00 0.00 0.00 0.00 0.00 0.00 0.00 0.00 0.00 0.00 0.00 0.00 0.00 0.00 0.00 0.00 0.00 0.01
0.00 0.00 0.00 0.00 0.00 0.00 0.00 0.00 0.00 0.00 0.00 0.00 0.00 0.00 0.00 0.00 0.00 0.00 0.00 0.00 0.00 0.00 0.00 0.00 0.00 0.00 0.00
0.00 0.00 0.00 0.00 0.00 0.00 0.00 0.00 0.00 0.00 0.00 0.00 0.00 0.00 0.00 0.00 0.00 0.00 0.00 0.00 0.00 0.00 0.00 0.00 0.00 0.00 0.00
0.00 0.00 0.00 0.00 0.00 0.00 0.00 0.00 0.00 0.00 0.00 0.00 0.00 0.00 0.00 0.00 0.00 0.00 0.00 0.00 0.00 0.00 0.01 0.01 0.01 0.00 0.00
0.00 0.00 0.00 0.00 0.00 0.00 0.00 0.00 0.00 0.00 0.00 0.00 0.00 0.00 0.00 0.00 0.00 0.00 0.00 0.00 0.00 0.00 0.01 0.01 0.02 0.02 0.02
0.00 0.00 0.00 0.00 0.00 0.00 0.01 0.01 0.00 0.00 0.01 0.01 0.00 0.00 0.00 0.00 0.00 0.00 0.00 0.00 0.00 0.00 0.00 0.01 0.02 0.03 0.03
0.01 0.00 0.00 0.00 0.00 0.01 0.04 0.05 0.03 0.00 0.01 0.03 0.00 0.00 0.00 0.00 0.00 0.00 0.00 0.00 0.00 0.01 0.01 0.02 0.02 0.03 0.03
0.01 0.01 0.01 0.02 0.03 0.05 0.09 0.11 0.08 0.01 0.00 0.03 0.01 0.00 0.00 0.00 0.00 0.00 0.01 0.01 0.01 0.02 0.03 0.04 0.04 0.04 0.04
0.02 0.02 0.02 0.01 0.02 0.06 0.08 0.16 0.12 0.14 0.02 0.05 0.03 0.04 0.13 0.02 0.00 0.00 0.01 0.02 0.03 0.04 0.05 0.08 0.10 0.11 0.10
0.02 0.01 0.01 0.01 0.02 0.03 0.07 0.12 0.21 0.21 0.04 0.11 0.23 0.14 0.20 0.10 0.01 0.00 0.02 0.04 0.08 0.11 0.13 0.16 0.18 0.20 0.18
0.02 0.01 0.01 0.02 0.03 0.06 0.10 0.13 0.10 0.13 0.07 0.20 0.40 0.20 0.22 0.25 0.12 0.02 0.04 0.07 0.10 0.14 0.15 0.17 0.20 0.25 0.31
0.05 0.02 0.02 0.04 0.09 0.14 0.17 0.23 0.28 0.21 0.22 0.29 0.35 0.28 0.33 0.34 0.19 0.09 0.08 0.08 0.10 0.13 0.14 0.16 0.13 0.13 0.22
0.08 0.05 0.07 0.12 0.19 0.19 0.24 0.22 0.35 0.26 0.21 0.36 0.37 0.41 0.49 0.27 0.17 0.16 0.08 0.11 0.08 0.10 0.11 0.10 0.12 0.14 0.13
0.17 0.19 0.19 0.20 0.18 0.20 0.30 0.34 0.34 0.16 0.16 0.18 0.31 0.36 0.34 0.34 0.31 0.17 0.13 0.14 0.08 0.10 0.10 0.07 0.06 0.05 0.06
0.22 0.22 0.26 0.25 0.21 0.22 0.25 0.33 0.24 0.12 0.15 0.19 0.24 0.36 0.30 0.24 0.22 0.15 0.15 0.12 0.10 0.09 0.06 0.05 0.02 0.01 0.00
0.23 0.21 0.21 0.24 0.26 0.27 0.17 0.22 0.19 0.13 0.12 0.19 0.22 0.21 0.17 0.08 0.05 0.08 0.11 0.08 0.10 0.14 0.08 0.03 0.01 0.00 0.00

GFSFLT2_prec_precacc24_168.txt.gz
Total_Precipitation_Accumulation
0.00 0.00 0.00 0.00 0.00 0.00 0.00 0.00 0.00 0.00 0.00 0.00 0.00 0.00 0.00 0.00 0.00 0.00 0.00 0.00 0.00 0.00 0.00 0.01 0.01 0.01 0.01
0.00 0.00 0.00 0.00 0.00 0.00 0.00 0.00 0.00 0.00 0.00 0.00 0.00 0.00 0.00 0.00 0.00 0.00 0.00 0.00 0.00 0.00 0.00 0.01 0.01 0.01 0.01
0.00 0.00 0.00 0.00 0.00 0.00 0.00 0.00 0.00 0.00 0.00 0.00 0.00 0.00 0.00 0.00 0.00 0.00 0.00 0.00 0.00 0.01 0.01 0.01 0.01 0.00 0.00
0.00 0.00 0.00 0.00 0.00 0.00 0.00 0.00 0.00 0.00 0.00 0.00 0.00 0.00 0.00 0.00 0.00 0.00 0.00 0.00 0.00 0.00 0.01 0.01 0.01 0.01 0.01
0.00 0.00 0.00 0.00 0.00 0.00 0.00 0.00 0.00 0.00 0.00 0.00 0.00 0.00 0.00 0.00 0.00 0.00 0.00 0.00 0.00 0.00 0.01 0.01 0.02 0.02 0.02
0.00 0.00 0.00 0.00 0.00 0.00 0.00 0.00 0.00 0.00 0.00 0.00 0.00 0.00 0.00 0.00 0.00 0.00 0.00 0.00 0.00 0.00 0.01 0.02 0.02 0.02 0.03
0.01 0.00 0.00 0.00 0.00 0.01 0.01 0.02 0.01 0.00 0.02 0.02 0.00 0.00 0.00 0.00 0.00 0.00 0.00 0.00 0.00 0.01 0.01 0.02 0.03 0.03 0.03
0.01 0.00 0.00 0.01 0.01 0.05 0.11 0.11 0.04 0.01 0.02 0.04 0.00 0.00 0.00 0.00 0.00 0.00 0.00 0.00 0.00 0.01 0.02 0.03 0.03 0.03 0.04
0.01 0.02 0.03 0.05 0.04 0.07 0.09 0.12 0.09 0.01 0.00 0.03 0.01 0.00 0.00 0.00 0.00 0.00 0.01 0.01 0.02 0.02 0.03 0.04 0.05 0.06 0.05
0.02 0.02 0.02 0.01 0.02 0.06 0.07 0.16 0.12 0.14 0.02 0.06 0.04 0.04 0.14 0.02 0.00 0.00 0.01 0.02 0.03 0.04 0.06 0.08 0.10 0.11 0.11
0.02 0.01 0.01 0.01 0.02 0.03 0.06 0.11 0.22 0.22 0.04 0.13 0.26 0.15 0.23 0.10 0.01 0.00 0.02 0.04 0.08 0.11 0.13 0.16 0.18 0.21 0.21
0.02 0.01 0.01 0.02 0.02 0.04 0.08 0.12 0.10 0.14 0.07 0.21 0.47 0.22 0.25 0.27 0.13 0.02 0.04 0.07 0.10 0.14 0.15 0.17 0.21 0.27 0.34
0.05 0.02 0.03 0.04 0.08 0.13 0.16 0.23 0.28 0.21 0.22 0.29 0.39 0.32 0.38 0.38 0.20 0.09 0.08 0.08 0.10 0.13 0.14 0.16 0.14 0.14 0.24
0.08 0.05 0.07 0.12 0.18 0.18 0.24 0.22 0.35 0.26 0.21 0.36 0.38 0.45 0.55 0.29 0.20 0.18 0.09 0.14 0.09 0.11 0.13 0.11 0.13 0.17 0.19
0.17 0.19 0.19 0.19 0.18 0.19 0.30 0.35 0.35 0.16 0.16 0.18 0.31 0.37 0.37 0.38 0.34 0.18 0.15 0.16 0.10 0.12 0.12 0.08 0.08 0.10 0.18
0.22 0.22 0.26 0.26 0.21 0.22 0.27 0.34 0.24 0.12 0.15 0.19 0.24 0.37 0.30 0.24 0.22 0.15 0.15 0.14 0.12 0.12 0.08 0.06 0.04 0.04 0.04
0.23 0.23 0.22 0.24 0.27 0.27 0.17 0.22 0.19 0.13 0.12 0.19 0.24 0.24 0.19 0.07 0.05 0.09 0.12 0.09 0.13 0.17 0.11 0.07 0.03 0.01 0.01

GFSFLT2_prec_precacc24_171.txt.gz
Total_Precipitation_Accumulation
0.00 0.00 0.00 0.00 0.00 0.00 0.00 0.00 0.00 0.00 0.00 0.00 0.00 0.00 0.00 0.00 0.00 0.00 0.00 0.00 0.00 0.01 0.01 0.02 0.02 0.02 0.02
0.00 0.00 0.00 0.00 0.00 0.00 0.00 0.00 0.00 0.00 0.00 0.00 0.00 0.00 0.00 0.00 0.00 0.00 0.00 0.00 0.00 0.01 0.01 0.02 0.03 0.05 0.06
0.00 0.00 0.00 0.00 0.00 0.00 0.00 0.00 0.00 0.00 0.00 0.00 0.00 0.00 0.00 0.00 0.00 0.00 0.00 0.00 0.01 0.01 0.01 0.02 0.02 0.03 0.03
0.00 0.00 0.00 0.00 0.00 0.00 0.00 0.00 0.00 0.00 0.00 0.00 0.00 0.00 0.00 0.00 0.00 0.00 0.00 0.00 0.00 0.00 0.01 0.01 0.01 0.02 0.03
0.00 0.00 0.00 0.00 0.00 0.00 0.00 0.00 0.00 0.00 0.00 0.00 0.00 0.00 0.00 0.00 0.00 0.00 0.00 0.00 0.00 0.00 0.01 0.01 0.02 0.02 0.02
0.00 0.00 0.00 0.00 0.00 0.00 0.00 0.01 0.01 0.01 0.01 0.01 0.00 0.00 0.00 0.00 0.00 0.00 0.00 0.00 0.00 0.00 0.01 0.02 0.03 0.03 0.04
0.01 0.00 0.00 0.00 0.01 0.03 0.05 0.08 0.08 0.02 0.03 0.04 0.01 0.00 0.00 0.00 0.00 0.00 0.00 0.00 0.00 0.01 0.01 0.02 0.03 0.04 0.04
0.01 0.01 0.01 0.02 0.04 0.12 0.15 0.13 0.05 0.01 0.02 0.04 0.00 0.00 0.00 0.00 0.00 0.00 0.00 0.00 0.01 0.01 0.03 0.04 0.04 0.04 0.05
0.01 0.03 0.05 0.06 0.05 0.08 0.09 0.12 0.09 0.01 0.00 0.03 0.01 0.00 0.00 0.00 0.00 0.00 0.01 0.01 0.02 0.02 0.04 0.05 0.05 0.07 0.06
0.02 0.02 0.02 0.01 0.02 0.06 0.07 0.16 0.13 0.15 0.02 0.07 0.05 0.05 0.16 0.02 0.00 0.00 0.01 0.02 0.03 0.04 0.06 0.08 0.10 0.11 0.11
0.02 0.01 0.00 0.01 0.02 0.03 0.06 0.11 0.24 0.24 0.04 0.18 0.29 0.16 0.26 0.11 0.01 0.00 0.02 0.04 0.08 0.11 0.13 0.16 0.18 0.21 0.22
0.02 0.01 0.01 0.02 0.02 0.04 0.08 0.11 0.10 0.16 0.07 0.21 0.51 0.24 0.29 0.30 0.13 0.02 0.04 0.07 0.10 0.14 0.15 0.17 0.21 0.27 0.35
0.05 0.02 0.03 0.04 0.08 0.12 0.16 0.21 0.26 0.21 0.22 0.29 0.40 0.35 0.42 0.43 0.21 0.09 0.08 0.08 0.10 0.13 0.14 0.16 0.15 0.14 0.25
0.09 0.06 0.07 0.12 0.18 0.18 0.23 0.21 0.34 0.26 0.21 0.36 0.38 0.47 0.59 0.30 0.21 0.18 0.09 0.16 0.09 0.11 0.14 0.12 0.13 0.17 0.20
0.17 0.20 0.20 0.19 0.17 0.19 0.27 0.33 0.35 0.16 0.16 0.18 0.31 0.37 0.38 0.40 0.35 0.18 0.15 0.17 0.11 0.15 0.14 0.08 0.08 0.10 0.19
0.21 0.21 0.25 0.25 0.20 0.21 0.25 0.32 0.24 0.12 0.15 0.19 0.24 0.37 0.30 0.24 0.22 0.15 0.15 0.14 0.13 0.13 0.10 0.07 0.05 0.06 0.04
0.21 0.22 0.21 0.23 0.25 0.25 0.16 0.19 0.18 0.13 0.11 0.19 0.24 0.26 0.19 0.07 0.05 0.09 0.14 0.09 0.13 0.17 0.12 0.08 0.05 0.04 0.03

GFSFLT2_prec_precacc24_174.txt.gz
Total_Precipitation_Accumulation
0.00 0.00 0.00 0.00 0.00 0.00 0.00 0.00 0.00 0.00 0.00 0.00 0.00 0.00 0.00 0.00 0.00 0.00 0.00 0.00 0.00 0.01 0.01 0.03 0.04 0.05 0.06
0.00 0.00 0.00 0.00 0.00 0.00 0.00 0.00 0.00 0.00 0.00 0.00 0.00 0.00 0.00 0.00 0.00 0.00 0.00 0.00 0.00 0.01 0.01 0.02 0.04 0.05 0.07
0.00 0.00 0.00 0.00 0.00 0.00 0.00 0.00 0.00 0.00 0.00 0.00 0.00 0.00 0.00 0.00 0.00 0.00 0.00 0.00 0.01 0.01 0.01 0.02 0.02 0.03 0.04
0.00 0.00 0.00 0.00 0.00 0.00 0.00 0.00 0.00 0.00 0.00 0.00 0.00 0.00 0.00 0.00 0.00 0.00 0.00 0.00 0.00 0.00 0.01 0.01 0.01 0.02 0.02
0.00 0.00 0.00 0.00 0.00 0.00 0.00 0.00 0.00 0.00 0.00 0.00 0.00 0.00 0.00 0.00 0.00 0.00 0.00 0.00 0.00 0.01 0.02 0.03 0.03 0.03 0.03
0.00 0.00 0.00 0.00 0.00 0.01 0.01 0.03 0.04 0.01 0.02 0.01 0.00 0.00 0.00 0.00 0.00 0.00 0.00 0.00 0.01 0.01 0.02 0.03 0.04 0.04 0.05
0.01 0.01 0.01 0.01 0.02 0.05 0.07 0.11 0.09 0.02 0.03 0.04 0.01 0.00 0.00 0.00 0.00 0.00 0.00 0.00 0.01 0.01 0.02 0.03 0.04 0.04 0.05
0.01 0.01 0.01 0.03 0.05 0.13 0.16 0.13 0.05 0.01 0.02 0.04 0.00 0.00 0.00 0.00 0.00 0.00 0.00 0.00 0.01 0.02 0.03 0.05 0.05 0.06 0.07
0.02 0.03 0.05 0.06 0.05 0.07 0.09 0.13 0.10 0.01 0.00 0.03 0.01 0.00 0.00 0.00 0.00 0.00 0.01 0.01 0.02 0.02 0.04 0.05 0.06 0.07 0.07
0.02 0.02 0.02 0.01 0.02 0.05 0.08 0.17 0.14 0.16 0.02 0.08 0.05 0.06 0.17 0.02 0.00 0.00 0.01 0.02 0.03 0.04 0.06 0.08 0.11 0.12 0.12
0.02 0.01 0.00 0.00 0.01 0.03 0.05 0.12 0.27 0.26 0.04 0.22 0.33 0.17 0.28 0.12 0.02 0.00 0.02 0.04 0.08 0.11 0.13 0.16 0.19 0.22 0.23
0.02 0.01 0.01 0.02 0.03 0.04 0.07 0.11 0.11 0.18 0.08 0.21 0.54 0.26 0.31 0.31 0.13 0.02 0.04 0.07 0.10 0.14 0.15 0.18 0.21 0.28 0.36
0.03 0.02 0.02 0.04 0.08 0.12 0.16 0.21 0.27 0.21 0.21 0.27 0.39 0.35 0.44 0.45 0.22 0.09 0.08 0.08 0.10 0.13 0.15 0.17 0.15 0.14 0.25
0.04 0.02 0.03 0.07 0.17 0.18 0.23 0.21 0.33 0.26 0.21 0.35 0.36 0.46 0.59 0.31 0.22 0.18 0.09 0.16 0.10 0.12 0.15 0.12 0.13 0.17 0.21
0.06 0.09 0.09 0.09 0.13 0.16 0.26 0.31 0.32 0.16 0.15 0.18 0.29 0.35 0.38 0.39 0.35 0.18 0.15 0.16 0.11 0.15 0.14 0.08 0.08 0.11 0.19
0.07 0.09 0.16 0.17 0.15 0.17 0.21 0.29 0.22 0.12 0.14 0.16 0.22 0.34 0.29 0.23 0.22 0.15 0.16 0.15 0.13 0.13 0.10 0.08 0.05 0.06 0.04
0.10 0.14 0.16 0.17 0.21 0.21 0.14 0.17 0.16 0.12 0.10 0.16 0.22 0.26 0.21 0.07 0.05 0.09 0.14 0.09 0.13 0.17 0.12 0.08 0.05 0.04 0.03

GFSFLT2_prec_precacc24_177.txt.gz
Total_Precipitation_Accumulation
0.00 0.00 0.00 0.00 0.00 0.00 0.00 0.00 0.00 0.00 0.00 0.00 0.00 0.00 0.00 0.00 0.00 0.00 0.00 0.00 0.00 0.01 0.01 0.03 0.04 0.06 0.07
0.00 0.00 0.00 0.00 0.00 0.00 0.00 0.00 0.00 0.00 0.00 0.00 0.00 0.00 0.00 0.00 0.00 0.00 0.00 0.01 0.01 0.01 0.01 0.03 0.04 0.06 0.08
0.00 0.00 0.00 0.00 0.00 0.00 0.00 0.00 0.00 0.00 0.00 0.00 0.00 0.00 0.00 0.00 0.00 0.00 0.00 0.01 0.01 0.01 0.01 0.02 0.02 0.04 0.04
0.00 0.00 0.00 0.00 0.00 0.00 0.00 0.00 0.00 0.00 0.00 0.00 0.00 0.00 0.00 0.00 0.00 0.00 0.01 0.01 0.01 0.01 0.01 0.01 0.02 0.02 0.03
0.00 0.00 0.00 0.00 0.00 0.00 0.00 0.00 0.00 0.00 0.00 0.00 0.00 0.00 0.00 0.00 0.00 0.00 0.00 0.00 0.00 0.01 0.02 0.03 0.04 0.04 0.04
0.00 0.00 0.00 0.00 0.00 0.01 0.02 0.04 0.04 0.01 0.02 0.01 0.00 0.00 0.00 0.00 0.00 0.00 0.00 0.00 0.01 0.01 0.02 0.04 0.05 0.05 0.06
0.01 0.01 0.01 0.01 0.03 0.05 0.08 0.12 0.09 0.02 0.03 0.04 0.01 0.00 0.00 0.00 0.00 0.00 0.00 0.00 0.01 0.02 0.02 0.03 0.05 0.06 0.06
0.01 0.01 0.01 0.03 0.05 0.13 0.16 0.14 0.05 0.01 0.03 0.05 0.00 0.00 0.00 0.00 0.00 0.00 0.00 0.00 0.01 0.02 0.03 0.05 0.06 0.06 0.08
0.02 0.03 0.05 0.06 0.05 0.08 0.10 0.14 0.09 0.01 0.00 0.03 0.01 0.00 0.00 0.00 0.00 0.00 0.01 0.01 0.02 0.03 0.04 0.05 0.06 0.07 0.07
0.02 0.02 0.02 0.01 0.01 0.04 0.07 0.16 0.14 0.14 0.02 0.09 0.06 0.07 0.18 0.02 0.00 0.00 0.01 0.02 0.03 0.04 0.06 0.08 0.11 0.12 0.12
0.02 0.01 0.00 0.00 0.00 0.01 0.03 0.11 0.26 0.24 0.04 0.23 0.34 0.18 0.29 0.13 0.02 0.00 0.02 0.04 0.08 0.11 0.13 0.17 0.19 0.23 0.24
0.01 0.00 0.00 0.01 0.01 0.01 0.02 0.06 0.11 0.19 0.07 0.21 0.55 0.28 0.33 0.32 0.14 0.02 0.04 0.07 0.10 0.14 0.16 0.18 0.22 0.28 0.36
0.01 0.01 0.01 0.01 0.01 0.01 0.02 0.07 0.16 0.18 0.21 0.27 0.39 0.36 0.45 0.45 0.23 0.09 0.08 0.08 0.10 0.14 0.15 0.17 0.15 0.14 0.26
0.02 0.01 0.01 0.02 0.02 0.02 0.06 0.07 0.19 0.19 0.19 0.33 0.34 0.43 0.55 0.30 0.22 0.18 0.09 0.16 0.10 0.12 0.15 0.12 0.13 0.18 0.21
0.02 0.02 0.02 0.02 0.03 0.03 0.09 0.17 0.24 0.12 0.12 0.16 0.27 0.31 0.34 0.37 0.34 0.17 0.15 0.17 0.12 0.15 0.14 0.08 0.08 0.11 0.20
0.04 0.05 0.08 0.09 0.07 0.06 0.09 0.18 0.16 0.09 0.11 0.13 0.21 0.27 0.23 0.21 0.22 0.15 0.16 0.15 0.13 0.13 0.11 0.08 0.05 0.06 0.04
0.07 0.10 0.11 0.11 0.14 0.13 0.08 0.11 0.12 0.09 0.08 0.12 0.19 0.25 0.20 0.07 0.05 0.09 0.14 0.10 0.14 0.17 0.12 0.09 0.06 0.04 0.03

GFSFLT2_prec_precacc24_180.txt.gz
Total_Precipitation_Accumulation
0.00 0.00 0.00 0.00 0.00 0.00 0.00 0.00 0.00 0.00 0.00 0.00 0.00 0.00 0.00 0.00 0.00 0.00 0.00 0.00 0.01 0.01 0.02 0.03 0.04 0.06 0.08
0.00 0.00 0.00 0.00 0.00 0.00 0.00 0.00 0.00 0.00 0.00 0.00 0.00 0.00 0.00 0.00 0.00 0.00 0.00 0.01 0.01 0.01 0.02 0.03 0.05 0.06 0.08
0.00 0.00 0.00 0.00 0.00 0.00 0.00 0.00 0.00 0.00 0.00 0.00 0.00 0.00 0.00 0.00 0.00 0.00 0.01 0.01 0.01 0.02 0.02 0.03 0.03 0.04 0.04
0.00 0.00 0.00 0.00 0.00 0.00 0.00 0.00 0.00 0.00 0.00 0.00 0.00 0.00 0.00 0.00 0.00 0.00 0.01 0.01 0.02 0.01 0.01 0.02 0.02 0.03 0.03
0.00 0.00 0.00 0.00 0.00 0.00 0.00 0.00 0.00 0.00 0.00 0.00 0.00 0.00 0.00 0.00 0.00 0.00 0.00 0.01 0.01 0.01 0.03 0.04 0.05 0.05 0.05
0.00 0.00 0.00 0.00 0.00 0.01 0.02 0.04 0.05 0.01 0.02 0.01 0.00 0.00 0.00 0.00 0.00 0.00 0.00 0.01 0.01 0.02 0.03 0.05 0.06 0.07 0.07
0.01 0.01 0.01 0.01 0.03 0.06 0.08 0.12 0.09 0.02 0.03 0.04 0.01 0.00 0.00 0.00 0.00 0.00 0.00 0.01 0.01 0.02 0.02 0.04 0.06 0.07 0.08
0.01 0.01 0.01 0.03 0.05 0.13 0.16 0.13 0.04 0.01 0.03 0.05 0.00 0.00 0.00 0.00 0.00 0.00 0.00 0.00 0.01 0.02 0.04 0.06 0.07 0.07 0.09
0.01 0.03 0.05 0.06 0.05 0.06 0.08 0.11 0.06 0.01 0.00 0.03 0.01 0.00 0.00 0.00 0.00 0.00 0.01 0.01 0.02 0.03 0.04 0.05 0.06 0.08 0.08
0.02 0.02 0.02 0.01 0.01 0.03 0.03 0.09 0.09 0.10 0.01 0.09 0.05 0.06 0.17 0.02 0.00 0.00 0.01 0.02 0.03 0.04 0.06 0.08 0.11 0.13 0.12
0.01 0.01 0.00 0.00 0.00 0.01 0.01 0.07 0.21 0.17 0.02 0.21 0.29 0.15 0.28 0.13 0.02 0.00 0.02 0.04 0.08 0.11 0.13 0.17 0.20 0.24 0.24
0.00 0.00 0.00 0.01 0.00 0.00 0.01 0.02 0.04 0.12 0.02 0.09 0.45 0.26 0.31 0.32 0.14 0.02 0.04 0.07 0.10 0.14 0.16 0.18 0.22 0.28 0.37
0.01 0.01 0.01 0.01 0.01 0.01 0.01 0.01 0.01 0.01 0.01 0.05 0.27 0.32 0.42 0.44 0.23 0.10 0.09 0.08 0.10 0.14 0.16 0.17 0.15 0.14 0.26
0.02 0.01 0.01 0.01 0.01 0.01 0.04 0.02 0.06 0.03 0.03 0.08 0.15 0.34 0.48 0.28 0.23 0.18 0.09 0.16 0.10 0.12 0.15 0.12 0.13 0.18 0.22
0.02 0.02 0.02 0.01 0.01 0.01 0.04 0.08 0.12 0.05 0.04 0.03 0.09 0.20 0.29 0.34 0.32 0.17 0.15 0.17 0.12 0.15 0.15 0.08 0.08 0.11 0.20
0.03 0.04 0.06 0.07 0.05 0.05 0.06 0.10 0.09 0.04 0.05 0.06 0.12 0.16 0.14 0.16 0.19 0.14 0.15 0.15 0.13 0.13 0.10 0.09 0.05 0.06 0.04
0.06 0.08 0.10 0.09 0.09 0.08 0.04 0.07 0.06 0.04 0.04 0.08 0.17 0.24 0.20 0.06 0.05 0.09 0.14 0.09 0.13 0.16 0.12 0.09 0.06 0.04 0.03